SCP
0 0 0 0 0 0 0 0 0 0 0 0 0 0 0 0 0 0 0 0 0 0 0 0 0 0 0 0 0 0 0 0 0 0 0 0 0 0 0 0 0 0 0
0 0 0 0 0 0 0 0 0 0 0 0 0 0 0 0 0 0 0 0 0 0 0 0 0 0 0 0 0 0 0 0 0 0 0 0 0 0 0 0 0 0 0
0 0 0 0 0 0 0 0 0 0 0 0 0 0 0 0 0 0 0 0 0 0 0 0 0 0 0 0 0 0 0 0 0 0 0 0 0 0 0 0 0 0 0
0 0 0 0 0 0 0 0 0 0 0 0 0 0 0 0 0 0 0 0 0 0 0 0 0 0 0 0 0 0 0 0 0 0 0 0 0 0 0 0 0 0 0
0 0 0 0 0 0 0 0 0 0 0 0 0 0 0 0 0 0 0 0 0 0 0 0 0 0 0 0 0 0 0 0 0 0 0 0 0 0 0 0 0 0 0
0 0 0 0 0 0 0 0 0 0 0 0 0 0 0 0 0 0 0 0 0 0 0 0 0 0 0 0 0 0 0 0 0 0 0 0 0 0 0 0 0 0 0
0 0 0 0 0 0 0 0 0 0 0 0 0 0 0 0 0 0 0 0 0 0 0 0 0 0 0 0 0 0 0 0 0 0 0 0 0 0 0 0 0 0 0
0 0 0 0 0 0 0 0 0 0 0 0 0 0 0 0 0 0 0 0 0 0 0 0 0 0 0 0 0 0 0 0 0 0 0 0 0 0 0 0 0 0 0
0 0 0 0 0 0 0 0 0 0 0 0 0 0 0 0 0 0 0 0 0 0 0 0 0 0 0 0 0 0 0 0 0 0 0 0 0 0 0 0 0 0 0
0 0 0 0 0 0 0 0 0 0 0 0 0 0 0 0 0 0 0 0 0 0 0 0 0 0 0 0 0 0 0 0 0 0 0 0 0 0 0 0 0 0 0
0 0 0 0 0 0 0 0 0 0 0 0 0 0 0 0 0 0 0 0 0 0 0 0 0 0 0 0 0 0 0 0 0 0 0 0 0 0 0 0 0 0 0
0 0 0 0 0 0 0 0 0 0 0 0 0 0 0 0 0 0 0 0 0 0 0 0 0 0 0 0 0 0 0 0 0 0 0 0 0 0 0 0 0 0 0
0 0 0 0 0 0 0 0 0 0 0 0 0 0 0 0 0 0 0 0 0 0 0 0 0 0 0 0 0 0 0 0 0 0 0 0 0 0 0 0 0 0 0
0 0 0 0 0 0 0 0 0 0 0 0 0 0 0 0 0 0 0 0 0 0 0 0 0 0 0 0 0 0 0 0 0 0 0 0 0 0 0 0 0 0 0
0 0 0 0 0 0 0 0 0 0 0 0 0 0 0 0 0 0 0 0 0 0 0 0 0 0 0 0 0 0 0 0 0 0 0 0 0 0 0 0 0 0 0
0 0 0 0 0 0 0 0 0 0 0 0 0 0 0 0 0 0 0 0 0 0 0 0 0 0 0 0 0 0 0 0 0 0 0 0 0 0 0 0 0 0 0
0 0 0 0 0 0 0 0 0 0 0 0 0 0 0 0 0 0 0 0 0 0 0 0 0 0 0 0 0 0 0 0 0 0 0 0 0 0 0 0 0 0 0
0 0 0 0 0 0 0 0 0 0 0 0 0 0 0 0 0 0 0 0 0 0 0 0 0 0 0 0 0 0 0 0 0 0 0 0 0 0 0 0 0 0 0
0 0 0 0 0 0 0 0 0 0 0 0 0 0 0 0 0 0 0 0 0 0 0 0 0 0 0 0 0 0 0 0 0 0 0 0 0 0 0 0 0 0 0
0 0 0 0 0 0 0 0 0 0 0 0 0 0 0 0 0 0 0 0 0 0 0 0 0 0 0 0 0 0 0 0 0 0 0 0 0 0 0 0 0 0 0
0 0 0 0 0 0 0 0 0 0 0 0 0 0 0 0 0 0 0 0 0 0 0 0 0 0 0 0 0 0 0 0 0 0 0 0 0 0 0 0 0 0 0
0 0 0 0 0 0 0 0 0 0 0 0 0 0 0 0 0 0 0 0 0 0 0 0 0 0 0 0 0 0 0 0 0 0 0 0 0 0 0 0 0 0 0
0 0 0 0 0 0 0 0 0 0 0 0 0 0 0 0 0 0 0 0 0 0 0 0 0 0 0 0 0 0 0 0 0 0 0 0 0 0 0 0 0 0 0
0 0 0 0 0 0 0 0 0 0 0 0 0 0 0 0 0 0 0 0 0 0 0 0 0 0 0 0 0 0 0 0 0 0 0 0 0 0 0 0 0 0 0
0 0 0 0 0 0 0 0 0 0 0 0 0 0 0 0 0 0 0 0 0 0 0 0 0 0 0 0 0 0 0 0 0 0 0 0 0 0 0 0 0 0 0
0 0 0 0 0 0 0 0 0 0 0 0 0 0 0 0 0 0 0 0 0 0 0 0 0 0 0 0 0 0 0 0 0 0 0 0 0 0 0 0 0 0 0
Wind_Speed
10 10 10 10 9 8 7 8 8 7 6 6 6 5 4 4 3 3 3 4 6 7 7 8 9 7 6 6 6 6 6 6 6 3 1 1 2 3 3 4 5 6 6
11 10 10 11 10 9 10 11 9 9 8 8 7 6 6 6 4 4 4 4 4 6 6 7 9 7 9 7 6 7 6 7 6 5 2 2 2 5 5 5 5 6 6
11 10 11 11 11 12 13 12 11 10 10 9 8 8 8 7 6 6 6 5 5 5 5 6 7 7 9 7 8 7 6 6 6 5 4 2 2 4 5 5 7 6 7
11 11 12 12 12 13 12 12 12 11 11 10 10 10 9 8 7 7 7 6 6 6 5 5 6 6 8 8 7 8 7 7 6 5 5 4 2 5 5 6 5 4 5
11 12 12 12 12 12 12 12 11 11 12 11 10 9 8 7 7 8 8 7 7 7 6 6 5 7 9 8 7 7 8 7 7 6 6 5 4 6 6 5 7 7 6
11 12 12 12 12 12 12 12 11 11 10 10 10 10 9 7 10 12 9 7 7 7 6 6 5 7 9 11 13 13 12 10 10 8 7 7 8 7 7 9 9 8 5
12 12 12 12 12 12 13 12 11 10 9 9 10 10 9 10 12 12 11 7 7 7 7 6 6 6 7 7 9 13 15 14 13 10 10 10 10 10 11 11 9 6 6
13 13 12 12 13 12 11 11 11 9 7 7 8 9 8 9 12 11 11 7 7 8 8 8 7 7 7 7 7 8 9 11 12 10 9 9 9 11 12 10 11 10 9
14 13 13 13 13 13 12 11 9 8 7 7 6 8 8 8 10 10 8 4 6 8 8 8 8 8 9 9 8 9 8 7 8 11 10 10 14 17 16 13 12 13 10
14 14 14 13 13 13 12 10 8 7 7 7 8 8 8 8 9 10 8 4 6 6 6 6 8 8 9 9 9 9 9 8 7 7 8 12 15 19 21 17 15 14 13
15 15 14 12 12 12 10 8 8 7 7 6 7 6 7 8 8 10 9 5 6 6 5 5 4 5 8 10 11 9 9 8 8 8 8 10 11 12 12 10 10 14 14
15 14 13 12 11 9 8 7 7 6 6 5 5 5 5 6 7 8 10 10 9 7 6 5 4 4 4 5 7 8 11 11 7 8 9 9 10 11 10 10 9 7 6
14 13 12 12 9 8 8 8 6 5 5 5 5 5 5 4 5 10 11 11 12 7 5 7 7 5 3 3 3 8 12 9 8 9 9 9 8 10 11 10 10 8 8
14 12 10 10 9 7 6 5 5 5 5 5 5 6 5 4 4 4 5 5 8 7 5 7 7 5 3 2 3 5 7 7 8 8 9 8 9 10 10 9 10 9 9
13 10 9 8 8 7 6 5 5 5 5 5 5 5 5 5 6 7 6 5 7 7 7 5 3 3 2 1 2 3 4 6 7 7 9 10 10 9 8 8 8 8 7
11 9 7 7 6 6 6 6 5 5 5 7 6 5 4 6 5 6 9 9 10 12 8 6 5 4 3 2 2 2 4 6 7 8 9 10 10 10 8 7 8 9 9
11 9 6 6 6 6 5 5 5 4 3 1 2 4 4 4 4 5 8 10 11 12 6 6 5 5 4 3 2 2 3 6 7 9 9 9 9 9 9 9 9 8 8
10 10 7 5 5 5 5 4 4 3 2 2 3 3 2 2 4 8 12 10 7 6 4 5 5 5 4 3 3 3 4 6 8 9 9 9 9 9 9 9 9 9 8
9 7 6 4 4 4 4 3 3 3 1 1 1 3 5 7 8 9 7 4 6 6 4 4 4 4 4 4 3 4 5 7 9 9 9 10 9 9 8 8 8 10 9
7 10 8 4 4 4 3 3 3 2 1 1 1 1 2 2 3 4 2 3 4 4 4 4 4 4 4 4 4 4 5 7 9 8 9 9 9 9 10 10 9 9 8
6 6 9 5 3 3 3 3 2 2 1 0 1 2 3 2 3 4 3 2 3 3 4 4 4 4 4 4 4 5 7 7 8 8 9 8 9 8 8 8 9 8 8
5 4 4 4 3 3 3 3 2 1 1 0 1 2 3 2 3 3 3 3 3 3 3 3 3 3 5 6 6 6 6 7 7 8 8 9 8 9 9 8 8 8 8
6 4 3 3 3 3 3 2 2 1 1 0 2 2 3 2 2 2 2 2 3 3 3 3 3 3 4 5 5 6 7 8 8 10 10 9 9 9 8 9 10 10 9
7 5 3 3 2 2 2 3 3 2 1 1 1 2 2 2 2 3 2 2 2 2 3 3 3 5 7 6 5 6 6 7 9 10 13 11 10 8 8 8 9 11 9
7 6 4 3 2 2 2 3 3 3 2 1 2 2 2 2 2 2 2 2 2 2 3 3 4 5 8 10 9 7 9 11 10 10 10 10 11 10 9 9 8 9 8
9 8 6 4 3 2 2 2 2 3 3 3 3 3 2 2 2 2 1 1 1 1 2 3 5 7 9 9 10 11 10 10 11 11 9 9 10 9 9 7 10 9 9
Wind_Direction
272 267 262 260 253 242 237 240 240 241 239 241 245 250 255 258 254 257 265 259 239 231 223 220 225 216 210 204 198 198 204 211 238 251 232 205 150 126 89 77 73 69 76
271 268 264 262 259 252 246 245 238 235 234 233 236 240 247 249 241 236 243 253 259 251 236 229 233 226 221 213 202 202 203 205 219 242 234 208 167 147 123 100 83 75 75
290 283 277 270 262 255 250 246 239 232 232 229 224 230 237 239 239 238 236 234 234 243 240 234 235 230 229 219 211 207 202 200 206 223 233 209 152 144 127 103 91 83 78
299 294 287 281 273 267 259 250 241 233 228 226 222 224 229 233 235 239 238 239 235 230 230 234 235 234 237 229 218 213 196 193 198 213 224 214 167 149 140 131 112 89 82
301 299 294 291 287 280 273 263 252 240 232 224 219 218 222 225 232 232 232 235 234 233 229 228 233 244 247 239 225 213 193 193 194 204 212 204 180 165 156 141 128 111 83
296 295 294 293 291 287 282 275 265 251 237 222 215 213 212 219 227 227 224 227 229 231 237 239 242 254 257 250 237 219 198 192 195 198 206 206 190 166 150 148 144 140 122
296 295 295 293 291 289 288 284 273 259 242 227 221 211 210 219 227 234 235 227 228 231 233 240 252 252 260 262 249 227 210 202 194 193 203 204 184 168 156 157 156 138 127
300 297 296 295 294 292 287 282 275 266 251 235 227 220 211 222 226 233 241 234 232 236 233 231 239 256 260 256 244 225 213 209 208 207 212 201 182 167 159 149 136 113 103
303 299 297 294 292 290 287 282 277 267 256 244 233 225 215 224 230 235 237 224 234 240 236 229 231 249 257 245 230 219 211 211 211 209 206 187 163 153 145 135 138 134 132
304 300 296 291 289 286 282 280 274 265 255 248 242 229 219 224 231 236 231 214 234 241 237 230 231 245 257 240 223 213 207 200 183 175 176 164 157 153 152 154 152 147 142
305 301 298 291 288 283 279 275 271 263 251 241 241 235 225 225 234 237 232 212 224 232 230 225 224 242 254 240 223 215 203 181 177 170 162 158 154 155 154 152 154 154 153
307 305 303 297 293 291 281 276 269 262 247 232 236 241 237 233 234 240 236 226 218 218 220 212 204 217 245 235 221 205 178 170 169 165 158 155 154 154 151 148 142 132 131
312 312 309 307 300 291 283 278 271 255 245 228 221 233 241 237 237 237 240 236 219 209 209 193 185 192 196 189 202 189 173 172 167 163 157 150 147 144 141 136 128 115 108
316 318 317 316 312 305 293 278 267 254 244 226 221 227 234 237 237 233 229 221 204 195 184 172 169 172 166 152 147 181 184 175 167 158 145 136 135 139 142 144 145 139 128
320 320 320 320 320 315 309 293 279 259 246 230 221 217 221 234 237 223 205 193 183 178 164 162 170 176 178 157 155 178 176 165 155 142 141 142 143 144 144 145 145 149 147
322 324 322 321 323 322 321 319 300 280 267 239 232 225 228 236 254 231 207 193 176 162 160 173 182 184 182 168 169 177 170 160 153 147 146 147 150 152 147 151 156 161 157
320 319 317 320 323 327 329 330 333 339 21 63 214 219 228 248 243 203 180 169 165 160 168 180 183 184 181 178 183 184 167 157 151 149 147 146 147 149 152 157 162 164 160
317 317 319 312 314 318 323 325 325 332 353 39 49 58 96 121 138 143 143 140 154 173 180 180 186 184 179 177 183 179 162 152 147 145 143 142 144 147 151 155 161 162 154
313 310 308 307 309 309 315 322 326 333 355 39 72 59 71 89 103 129 140 144 161 175 181 183 186 182 179 180 175 171 162 152 146 143 142 143 145 145 147 150 151 150 149
307 312 321 314 316 319 322 326 329 334 356 57 94 113 120 106 117 138 138 138 163 177 184 186 183 182 179 178 165 164 157 147 143 142 143 143 144 146 146 147 149 154 157
304 308 321 325 321 315 313 313 314 318 330 71 91 142 156 143 142 155 162 167 184 190 185 183 180 180 178 170 163 165 158 148 147 146 145 145 145 144 145 147 150 150 144
308 299 308 316 321 323 317 312 311 310 314 131 118 137 163 156 154 162 179 196 204 202 192 182 175 182 177 169 165 163 155 149 149 150 148 148 149 148 146 147 147 147 147
324 317 314 321 326 335 343 346 338 331 332 123 141 148 163 169 168 178 190 199 204 204 202 191 177 174 166 163 165 164 162 162 161 157 152 151 152 151 152 153 154 153 158
336 335 329 327 336 350 359 0 1 6 12 35 119 144 158 168 171 180 186 194 196 194 195 192 186 172 165 168 172 176 172 162 158 159 157 156 156 156 158 161 165 171 173
347 350 347 340 339 348 3 14 19 22 30 54 89 106 126 143 155 163 177 198 207 210 207 197 192 180 176 177 176 170 158 154 155 155 156 156 159 161 163 167 167 168 167
352 356 356 351 345 347 1 16 27 36 42 52 73 85 93 107 121 132 157 208 246 229 212 189 178 176 172 172 167 154 149 152 152 152 154 155 158 163 165 167 168 170 171